Theta_e
320 321 321 321 321 320 319 319 319 317 316 312 309 312 302 300 297 301 304 307 305 298 291 294 293 292 295 297 295 293 290 288 288 289 288 287 287 286 286 287 286 285 286 283 284 285 283 284 283 281 282 286 289 287 291 289 289 291 287 287 284 291 280 278 283 278 276 279 278 278 278 281 281 281 278 280 280 282 282 281 276 274 271 273 272 272 281
317 319 320 321 321 320 319 318 318 317 315 314 312 306 302 302 299 297 304 307 305 295 286 287 289 292 295 295 294 294 292 290 287 288 289 288 286 287 286 286 288 285 286 285 285 285 282 284 284 284 284 283 287 287 289 291 289 290 287 289 289 282 283 282 277 274 274 275 278 279 279 279 278 280 280 282 284 282 278 275 275 274 278 274 275 273 280
315 315 317 319 320 320 319 317 317 317 316 317 312 303 304 301 301 298 300 304 302 291 292 289 289 290 291 291 290 291 290 292 294 291 290 290 286 286 285 286 284 286 287 286 287 285 287 283 284 287 285 287 285 285 289 291 291 291 290 294 292 287 282 282 277 275 273 272 271 274 276 279 278 275 276 280 281 281 278 277 275 275 278 277 278 279 285
315 314 314 316 318 318 318 317 316 316 316 315 312 306 303 297 289 296 294 298 297 297 299 293 289 288 289 288 290 291 288 290 291 294 292 291 289 288 286 286 287 286 285 284 285 285 286 286 284 283 282 284 284 283 287 289 292 293 293 292 291 282 281 285 284 282 279 281 282 280 279 276 277 278 279 280 280 282 282 280 275 276 279 279 281 283 283
314 314 314 314 314 316 317 317 316 316 315 314 312 307 303 300 292 291 286 295 294 293 295 293 293 286 291 286 289 287 289 289 287 293 287 291 291 289 290 288 285 284 285 285 285 286 286 287 286 285 283 281 283 281 282 285 287 290 290 291 288 281 282 284 285 285 285 286 285 280 283 280 281 281 280 281 281 279 279 278 277 283 277 276 283 284 282
312 313 313 313 313 313 314 316 316 315 314 313 313 301 303 294 297 298 296 291 286 288 288 294 292 292 291 289 291 287 287 287 285 288 291 289 291 289 288 289 290 289 287 286 284 285 285 286 285 287 286 284 284 286 285 284 286 289 285 287 287 284 283 286 284 283 284 285 286 282 280 282 282 282 282 281 281 279 277 278 282 282 279 278 283 284 283
310 311 311 312 313 313 313 313 314 315 314 314 310 301 303 301 296 299 301 292 293 291 292 293 292 292 291 289 290 288 288 286 289 287 285 289 286 291 285 287 289 289 289 287 285 286 282 282 286 286 286 287 285 284 285 285 283 287 284 284 282 282 283 286 285 283 284 285 285 284 280 281 282 281 281 282 281 280 280 280 282 282 282 284 284 284 284
308 309 310 311 311 311 312 313 312 313 314 314 307 305 300 297 296 293 299 296 295 294 292 292 292 289 293 288 289 289 288 287 288 288 289 286 287 291 287 287 287 289 290 289 286 288 288 287 284 285 287 286 287 286 288 284 281 283 284 283 281 284 283 289 284 283 283 285 285 284 283 282 281 283 284 283 280 279 281 281 282 282 281 283 283 283 283
307 307 308 308 309 310 310 311 312 311 313 307 305 305 307 304 305 302 296 291 293 294 292 290 290 288 290 289 290 291 290 289 291 289 293 291 288 289 288 290 288 288 290 290 289 291 291 290 290 290 288 286 288 288 286 290 280 280 280 281 279 285 281 285 281 282 282 286 285 283 282 281 281 281 283 283 281 279 282 280 282 280 280 281 281 280 281
306 306 306 307 307 308 308 309 310 311 311 306 307 302 309 308 303 305 300 291 294 292 293 292 289 285 289 290 290 291 291 293 293 288 293 293 293 292 291 291 290 288 288 288 290 293 294 293 294 294 292 292 290 292 288 290 288 282 283 282 281 284 282 282 282 280 280 284 278 279 279 280 278 280 283 284 284 285 285 285 284 283 284 281 279 281 287
304 305 305 305 306 306 307 308 308 309 309 303 304 304 307 305 303 301 300 292 293 294 292 291 289 290 292 292 291 293 292 293 293 288 288 293 292 294 293 291 289 288 288 291 295 296 296 296 295 293 292 290 291 290 289 288 289 286 282 278 277 280 282 283 284 280 280 279 277 279 278 274 277 286 287 287 285 285 283 283 285 287 285 283 286 287 289
301 303 304 304 305 305 305 306 307 307 307 306 305 301 304 307 306 304 297 290 289 295 292 289 291 291 292 292 292 291 291 292 292 294 291 292 291 293 293 292 291 287 294 294 291 290 291 291 290 290 290 289 289 289 289 288 288 288 286 284 280 282 282 282 283 279 279 277 278 276 273 275 286 285 286 287 287 287 285 286 287 288 288 287 286 286 287
300 301 302 303 303 304 305 305 305 305 306 306 304 298 305 307 301 300 300 295 288 291 289 290 294 294 294 294 293 292 294 294 295 295 294 293 292 290 292 291 289 292 293 292 294 292 290 289 289 289 289 289 289 289 288 288 288 288 284 288 286 283 282 281 281 279 274 273 277 273 273 283 284 286 286 282 283 282 283 283 286 287 288 288 286 287 288
299 299 300 301 302 302 303 304 304 304 304 304 301 301 303 303 298 296 295 294 292 293 293 292 293 293 294 293 293 293 294 293 294 295 292 295 293 292 292 293 294 294 292 295 292 291 287 287 285 285 284 286 285 285 287 288 288 288 286 286 288 287 284 283 280 285 277 278 277 277 284 283 285 285 287 283 282 279 282 280 284 289 289 287 286 288 289
298 298 298 299 300 300 302 303 303 303 303 303 302 300 300 302 301 297 297 294 287 293 296 288 291 293 294 294 294 292 292 292 291 290 294 296 293 295 296 296 292 294 294 293 288 288 288 286 282 281 282 281 277 280 287 284 288 289 288 287 287 287 284 284 282 280 284 278 277 277 277 274 280 287 289 286 287 287 286 285 284 290 291 289 287 288 289
298 298 298 298 298 299 299 300 301 301 302 302 301 299 299 301 301 300 296 292 291 285 289 297 297 294 293 294 295 292 290 291 290 290 290 290 291 294 293 293 291 294 293 292 289 289 286 284 281 281 278 281 284 281 278 283 279 282 284 286 286 286 287 286 283 281 282 279 276 275 274 277 286 286 286 283 286 286 283 280 280 288 285 288 288 288 288
298 297 297 297 297 298 298 298 299 299 300 301 298 298 295 300 298 295 293 293 292 285 296 296 296 297 295 292 294 292 293 291 291 288 286 288 290 291 290 288 289 292 293 291 288 287 284 283 284 283 284 286 282 281 283 280 278 277 280 280 283 282 282 282 280 280 281 280 277 275 280 280 285 288 282 280 283 286 284 273 276 287 286 289 289 288 288
297 297 297 298 297 297 297 297 298 298 298 300 299 296 295 299 300 299 292 288 285 286 293 295 293 291 291 292 291 294 295 291 292 291 290 291 289 288 289 287 287 289 292 288 287 285 284 284 281 281 280 287 285 285 280 284 282 280 278 278 278 279 279 281 277 279 280 281 279 281 282 287 289 288 280 281 285 285 277 274 283 283 286 287 287 288 287
297 297 297 297 297 297 297 297 297 296 297 298 298 297 296 299 299 298 292 288 286 282 291 292 291 290 292 297 295 296 295 295 294 290 287 288 288 291 290 286 291 287 289 287 287 285 284 283 287 285 282 284 287 280 286 283 282 284 280 278 277 279 281 280 281 278 278 280 278 278 282 287 292 282 282 284 284 275 277 287 285 287 283 283 286 286 285
297 297 297 297 297 297 297 297 296 296 296 297 296 291 294 298 298 298 291 284 287 284 288 288 289 286 291 290 288 290 292 294 295 292 289 287 289 289 287 285 288 288 287 288 284 287 285 282 285 286 283 284 286 288 285 285 289 282 281 285 282 280 280 275 279 281 281 280 278 277 274 285 292 283 281 284 283 285 291 291 285 285 285 282 283 285 284
297 297 297 297 297 297 296 297 297 297 297 297 296 290 289 294 297 298 297 291 285 281 284 293 293 291 292 290 291 293 291 288 292 291 293 293 292 290 284 284 288 289 284 288 282 284 286 283 286 285 287 287 286 288 282 284 286 288 287 285 285 287 282 279 282 285 278 277 275 277 284 289 287 287 284 284 288 293 294 290 290 290 285 284 284 284 284
297 297 296 297 297 297 297 297 297 297 297 297 297 292 286 290 293 294 295 295 287 283 284 289 290 289 291 292 292 292 290 290 291 292 288 286 292 293 292 292 288 290 288 290 285 286 288 286 288 285 283 286 288 285 286 284 281 286 289 288 281 288 287 287 283 286 284 281 284 288 291 289 287 291 292 292 291 292 293 292 291 291 287 285 287 286 284
296 297 297 296 297 297 297 297 296 296 297 297 295 289 287 288 288 294 291 285 288 289 290 289 290 289 291 291 293 294 295 297 296 295 295 289 286 289 290 291 290 292 290 293 289 289 289 288 285 288 286 287 286 285 286 286 284 287 284 289 289 292 293 292 289 286 291 292 291 290 287 285 286 290 294 294 293 291 291 289 289 289 289 285 286 287 284
297 296 296 296 296 296 296 296 296 296 297 297 296 289 287 288 288 290 288 288 283 280 283 285 283 280 283 285 290 295 296 296 296 297 298 296 287 286 290 292 294 292 289 292 296 291 289 291 288 290 286 287 289 285 283 283 285 288 287 285 289 291 291 290 287 288 286 281 291 290 290 288 287 288 290 293 294 292 291 289 289 291 288 284 285 286 284
296 296 296 296 295 296 296 295 296 296 297 297 296 294 292 288 290 291 285 279 277 277 273 277 281 286 290 291 290 289 290 294 298 298 298 297 294 289 287 293 298 294 293 295 293 291 289 287 287 288 284 290 292 285 289 286 284 291 285 287 288 286 292 288 287 288 286 286 291 292 293 292 290 290 290 289 290 289 287 289 290 290 288 285 285 284 284
296 296 295 296 296 296 295 296 296 296 296 297 296 290 287 287 289 290 288 287 283 280 274 273 277 285 285 285 285 288 293 294 295 297 297 298 298 297 296 297 296 298 297 295 294 291 290 289 288 288 286 286 296 288 287 290 289 292 290 287 293 291 291 285 288 288 288 291 291 291 291 291 291 291 291 291 291 290 288 286 285 286 286 284 283 284 283
296 296 295 296 295 295 296 295 296 295 296 296 293 290 288 288 290 288 285 285 281 274 277 273 279 282 282 281 286 289 288 289 289 289 290 291 291 291 292 291 291 292 293 292 294 292 291 289 287 285 288 287 291 291 291 289 289 288 288 291 292 288 287 290 289 285 285 286 288 291 286 285 290 291 292 293 293 292 290 288 286 284 284 283 282 281 283
295 296 295 295 295 296 295 295 295 295 296 296 294 290 289 288 288 290 290 288 282 274 274 274 274 277 284 280 284 286 287 287 287 286 286 287 288 289 289 289 289 288 288 287 285 288 288 285 285 289 290 290 289 287 291 292 290 289 289 290 292 290 290 291 287 286 285 290 293 293 293 292 293 294 295 294 294 292 290 289 288 286 285 285 284 282 280
294 295 295 295 295 295 295 295 295 295 295 295 290 286 285 287 289 291 291 291 288 282 280 280 282 280 273 276 285 282 285 286 286 286 286 287 287 287 287 287 286 287 287 288 287 287 286 287 290 287 286 291 290 286 289 285 285 285 288 293 293 294 296 294 293 293 293 294 294 294 293 291 293 295 296 295 293 293 291 291 291 289 287 285 285 284 283
294 295 295 294 295 295 294 295 295 295 295 287 286 282 278 282 287 288 290 290 289 286 278 275 273 275 283 279 277 281 282 285 285 285 285 285 286 285 285 285 285 287 287 286 286 283 286 288 288 290 290 295 289 287 286 286 286 287 293 294 295 295 296 296 297 294 292 295 296 295 294 294 295 295 295 294 290 292 291 291 291 290 288 286 285 284 284
294 294 294 294 295 294 294 294 295 295 293 284 281 277 277 273 282 290 292 291 291 285 278 279 274 280 277 277 283 280 281 283 282 282 283 284 285 287 288 289 288 288 284 285 286 285 287 285 285 287 289 293 290 286 285 285 285 286 291 293 294 295 295 295 297 297 297 296 296 295 294 293 293 292 291 291 289 290 290 290 290 289 288 286 285 285 284
294 294 294 294 294 295 295 295 294 295 290 285 283 279 281 280 283 288 292 291 288 283 279 274 273 270 268 274 277 280 283 283 283 283 283 284 283 285 285 286 284 287 287 284 285 285 284 286 286 286 287 291 292 285 286 285 283 285 290 292 294 295 295 295 296 296 297 297 295 293 291 289 288 290 294 294 290 288 290 290 290 289 287 286 285 284 283
294 294 294 293 294 294 294 295 295 292 286 287 291 293 293 294 293 293 292 287 281 275 281 274 269 271 270 263 277 275 281 281 280 281 281 286 283 284 284 286 286 285 289 285 282 282 286 287 286 284 287 289 287 285 284 284 285 290 292 292 293 294 294 295 296 297 296 297 296 292 291 293 293 293 292 290 286 286 287 288 287 284 283 282 280 279 279
293 294 294 294 294 293 294 294 293 292 293 287 281 284 288 293 292 294 292 285 281 282 276 272 271 270 269 274 272 274 283 276 277 281 277 283 284 284 283 285 286 284 286 283 284 286 286 287 284 285 288 286 288 285 280 284 289 290 291 292 292 293 294 294 295 295 296 296 296 296 296 296 295 284 284 285 285 284 284 283 282 282 281 281 280 280 279
293 293 293 293 292 293 293 291 287 286 281 282 282 283 287 292 293 293 292 285 277 275 275 273 273 268 267 267 268 273 278 275 274 276 274 276 283 280 282 280 283 281 281 290 284 283 282 283 286 283 280 285 284 280 282 286 288 289 290 291 292 293 292 291 292 294 295 295 294 294 295 294 293 287 284 282 283 281 282 282 283 282 280 280 280 279 277
292 293 293 293 292 289 285 288 284 282 280 280 281 289 292 293 293 290 286 283 282 275 275 273 273 269 269 266 266 270 281 274 277 277 275 275 275 277 279 276 274 278 281 281 278 283 282 286 285 278 284 281 278 282 285 287 287 288 289 289 291 292 291 291 292 293 293 293 292 291 290 289 289 289 288 283 281 280 282 281 281 282 282 281 279 278 277
292 292 292 291 286 284 280 278 284 283 279 284 287 292 292 290 287 287 283 282 283 284 276 272 271 270 273 271 273 272 279 271 277 273 272 275 275 280 280 277 275 280 280 277 278 278 281 287 282 279 280 279 281 286 287 287 288 288 289 290 291 292 292 292 292 292 291 290 290 288 288 288 288 288 287 283 281 280 280 280 280 281 281 281 280 277 276
292 291 284 282 280 276 275 273 273 279 292 290 290 283 275 280 270 274 277 278 281 283 275 276 271 274 276 273 269 278 277 272 277 271 271 273 274 271 275 275 275 280 272 275 279 284 282 280 279 277 279 284 286 286 287 288 288 289 290 290 291 291 292 292 292 290 289 288 288 287 284 284 286 287 287 285 283 280 281 283 283 283 283 282 279 277 276
288 283 280 279 277 274 273 270 283 291 287 287 281 273 271 275 272 271 270 274 271 270 277 276 272 276 273 271 272 280 277 273 272 271 270 276 274 268 274 270 274 277 271 273 275 283 275 276 278 278 277 281 282 284 287 288 289 289 289 290 291 291 292 291 291 290 289 289 290 291 289 287 287 287 288 288 286 283 283 283 282 281 281 280 278 276 274
281 278 278 278 276 277 284 284 291 286 282 271 268 268 266 272 270 265 274 266 264 268 274 270 277 276 276 273 272 272 279 275 270 270 272 273 277 270 272 272 273 273 267 269 271 281 276 272 276 276 275 281 283 286 287 287 288 289 289 290 290 290 290 291 290 291 291 291 291 291 291 291 290 290 289 288 287 285 282 280 280 279 279 278 276 274 273
281 279 279 277 277 279 281 282 279 270 272 271 268 267 266 263 266 266 269 263 264 264 270 268 271 272 275 278 277 272 280 281 276 278 275 271 277 276 270 270 275 270 267 269 274 273 268 268 270 272 274 280 282 284 284 282 282 283 285 287 288 288 287 288 288 289 289 288 288 288 289 289 288 288 289 288 287 286 282 279 278 278 277 276 274 273 272
282 281 280 282 280 280 280 278 276 274 274 274 268 264 266 265 268 262 264 262 263 264 264 270 266 269 272 276 274 276 274 277 273 275 272 270 277 274 271 272 272 269 266 274 274 265 268 268 269 270 275 279 280 272 266 267 270 270 271 274 278 280 282 282 284 284 284 285 287 288 288 288 288 286 281 281 280 278 277 277 276 276 276 274 273 271 270
290 285 282 278 279 278 279 273 277 274 268 269 267 263 267 261 263 262 260 265 263 267 267 272 271 278 277 278 274 278 275 281 275 272 274 270 278 275 270 271 270 267 271 272 270 269 268 268 269 272 276 270 263 262 262 261 262 265 267 269 270 272 276 278 280 282 283 283 283 285 283 280 278 278 279 281 281 280 279 279 278 276 273 271 270 269 267
286 284 280 278 275 276 276 265 275 267 267 267 266 261 262 259 262 261 258 260 260 264 267 269 270 272 270 276 272 274 273 275 280 274 273 276 273 269 270 267 269 273 271 266 268 268 270 270 273 274 263 261 261 259 259 259 258 259 261 262 265 269 272 274 276 279 281 282 281 281 280 281 281 281 281 281 281 279 277 276 275 272 271 270 268 266 265
279 276 275 273 269 274 270 265 274 267 263 265 269 262 261 260 263 262 266 265 267 269 270 271 272 271 270 273 272 273 276 270 279 272 268 274 268 271 269 268 271 268 269 269 270 269 267 271 269 261 260 256 258 257 257 258 258 257 257 257 260 262 264 267 269 273 276 279 280 280 281 280 278 277 277 278 278 278 276 273 271 269 268 266 264 263 263
275 273 272 269 266 271 267 265 266 261 264 267 265 265 266 267 265 265 266 265 267 270 271 271 271 271 270 272 268 269 271 271 270 271 273 272 269 267 273 272 270 267 269 268 268 268 270 272 260 259 257 257 256 256 256 256 257 257 255 254 256 257 259 261 264 269 273 276 278 278 277 275 275 274 274 274 274 274 272 270 269 267 265 262 261 262 263
276 276 273 271 267 269 268 263 265 264 262 261 266 267 269 270 269 269 268 268 270 271 269 270 270 270 269 270 268 268 269 271 270 273 273 267 268 272 276 269 267 269 266 266 267 269 270 262 258 258 257 256 255 256 255 256 255 255 254 255 256 256 257 259 262 266 271 273 273 273 273 272 272 272 271 269 268 268 268 267 266 265 264 262 262 262 263
271 276 273 266 265 269 266 267 263 263 263 264 264 266 269 268 268 268 267 267 268 270 267 268 267 270 269 273 272 269 270 271 269 271 273 270 273 268 267 267 267 269 269 266 269 263 259 258 257 256 256 256 255 255 255 255 255 254 255 254 254 255 256 257 261 266 270 272 271 272 272 272 272 270 268 266 265 265 266 266 265 265 263 262 261 262 262
275 273 270 269 269 268 267 267 265 267 268 266 266 268 268 268 267 264 263 265 264 263 266 265 266 268 267 271 269 268 266 270 266 268 272 269 267 266 267 263 264 263 264 258 257 257 257 256 256 256 256 256 255 255 255 255 255 254 254 254 254 255 256 258 263 269 271 272 270 271 272 271 268 266 265 265 263 263 264 265 264 262 261 261 260 260 261
274 272 273 270 267 267 264 263 265 267 266 264 264 264 263 263 264 263 264 261 262 263 268 272 273 270 269 270 266 268 267 270 269 271 269 266 268 269 269 266 267 265 259 254 254 254 255 256 256 255 255 254 255 255 255 255 256 255 254 255 255 255 256 259 263 267 269 270 270 270 269 268 266 266 264 262 261 261 261 261 261 260 260 261 261 260 260
278 275 272 273 270 265 265 265 267 266 265 264 263 261 261 261 263 260 262 261 261 262 264 264 268 268 266 267 266 263 266 270 265 266 268 268 266 264 266 267 260 250 251 253 253 254 254 255 255 254 254 254 254 255 255 255 255 254 254 254 254 255 257 259 261 263 264 265 267 267 265 265 265 262 261 261 260 259 258 258 259 260 260 260 260 260 259
271 269 268 268 268 267 269 270 266 262 262 262 259 258 259 257 259 258 262 261 261 262 262 266 265 265 265 263 265 268 270 268 268 268 267 260 254 257 257 254 250 251 251 250 251 253 254 254 255 254 254 254 255 255 255 255 255 254 254 254 254 255 256 256 257 258 259 259 259 259 260 260 261 261 261 260 260 258 256 256 257 258 259 259 259 259 259
Wind_Speed
18 22 23 24 24 24 24 24 25 23 24 13 9 9 8 12 13 6 12 14 19 12 10 9 10 12 10 1 8 3 4 3 3 6 5 5 5 3 5 10 6 6 4 2 5 8 6 9 11 4 5 9 13 6 14 10 8 5 1 4 1 6 2 4 12 4 2 1 1 2 1 1 3 6 3 6 12 17 17 13 3 5 1 4 2 3 23
12 16 22 24 24 24 24 24 24 24 27 15 11 12 10 10 6 3 3 12 14 15 14 14 17 12 7 10 11 3 4 3 2 8 7 8 5 13 8 2 7 4 3 4 7 7 5 7 8 5 6 6 9 10 11 16 9 9 8 10 7 2 5 5 4 4 5 2 2 1 1 1 5 8 9 12 11 9 3 5 1 2 12 7 9 16 25
11 11 14 20 23 23 25 25 25 24 28 19 13 11 9 4 3 3 7 8 11 17 12 12 11 17 18 14 16 11 5 8 12 8 9 7 4 2 5 5 2 6 6 6 6 5 16 5 5 11 6 9 1 7 15 16 13 11 7 10 8 7 5 8 11 16 15 13 9 9 10 15 5 2 1 8 17 16 4 10 6 13 6 13 10 21 24
9 10 12 11 16 22 23 23 24 25 28 25 13 8 6 10 7 5 5 10 12 12 7 2 6 11 13 12 12 10 10 7 6 11 12 6 2 3 1 1 7 8 4 7 9 12 6 11 3 5 5 2 1 3 11 17 13 8 3 6 11 4 3 11 17 17 19 19 11 1 7 5 7 11 14 16 13 18 14 8 6 16 13 12 23 29 19
10 10 9 11 12 11 19 22 27 30 31 30 16 9 7 4 11 8 9 2 10 14 14 9 5 5 8 8 6 18 19 9 2 13 6 8 9 2 6 6 2 6 10 11 13 9 8 8 11 15 9 1 1 4 3 7 8 5 3 5 5 1 8 14 18 22 20 16 15 5 11 9 12 16 15 18 17 14 17 18 20 14 8 20 21 19 15
11 11 10 9 9 12 10 15 21 22 23 26 14 9 7 8 8 10 9 12 15 17 16 18 16 9 10 12 5 7 9 12 12 3 11 2 8 9 3 9 16 14 11 6 6 6 11 9 19 17 8 5 1 2 0 3 3 1 2 0 4 6 13 16 16 17 15 15 18 6 6 8 10 15 18 20 19 15 19 21 23 22 17 24 23 19 22
13 12 11 9 9 8 8 11 10 21 26 27 15 12 7 6 2 6 11 10 9 22 21 21 21 22 19 10 12 14 15 18 16 5 3 7 4 18 14 18 23 19 11 5 10 9 9 15 14 10 11 12 3 3 2 3 1 1 2 1 2 0 12 12 10 14 14 19 18 8 10 8 8 10 16 20 16 20 22 25 29 27 21 24 26 26 31
12 13 12 11 10 9 8 7 8 8 16 19 13 14 11 12 9 8 9 13 9 10 11 10 16 19 19 15 16 16 20 23 9 4 11 8 11 14 20 21 11 14 15 16 16 19 22 20 14 5 11 2 6 7 9 2 1 2 7 2 2 5 12 13 8 11 16 19 15 9 12 10 14 17 23 23 9 13 22 27 24 16 18 25 28 29 30
13 13 12 12 11 10 9 9 7 8 4 9 15 12 13 4 10 7 7 12 14 13 12 12 15 15 14 15 19 17 19 21 18 11 6 18 9 11 24 20 11 8 16 21 26 27 23 17 20 9 7 10 6 7 3 10 4 2 2 1 1 7 5 3 1 12 17 15 16 10 8 8 12 20 30 26 13 17 24 21 15 13 21 25 23 22 25
15 13 12 12 11 10 9 9 8 8 4 5 4 13 7 9 2 6 7 11 11 16 11 13 9 14 16 19 23 17 24 24 9 9 10 17 18 11 15 18 15 11 14 22 26 26 24 23 21 17 6 5 3 7 3 10 12 7 10 2 6 9 5 8 11 14 17 13 2 4 3 1 9 23 32 21 21 27 23 17 14 20 24 19 19 26 24
18 15 13 13 12 10 10 9 8 8 4 5 4 4 5 10 8 4 6 15 9 14 12 15 18 11 11 22 18 19 13 14 14 17 9 11 16 14 14 14 14 15 19 27 21 12 12 14 13 7 6 5 6 6 5 7 7 7 8 1 1 1 7 11 7 13 12 5 2 4 4 13 23 12 3 16 25 23 22 22 27 29 17 18 22 25 21
18 17 15 14 13 12 11 9 9 9 5 5 5 6 5 6 8 8 9 17 16 14 17 16 18 13 20 20 22 21 22 23 23 21 24 10 8 15 15 14 13 15 16 4 4 2 4 3 1 0 2 6 8 8 9 12 14 9 9 9 6 10 10 12 4 7 10 4 4 2 16 22 16 3 7 8 14 17 20 24 29 30 25 24 26 25 21
17 18 17 15 14 14 13 10 9 10 9 4 4 8 3 4 7 6 7 9 10 12 14 15 16 20 19 16 17 22 23 23 21 17 14 16 14 9 12 16 18 20 3 6 6 6 8 11 11 11 11 9 10 12 15 19 22 12 7 13 12 12 12 5 4 3 5 2 9 16 22 7 6 12 10 5 2 6 7 18 25 27 25 24 21 21 26
15 16 17 16 15 15 15 13 11 10 10 8 6 6 4 6 6 4 6 6 8 9 15 12 15 18 17 20 19 18 16 18 15 14 18 15 19 18 9 9 11 2 4 5 6 7 5 5 11 6 9 6 6 10 20 26 23 20 21 18 15 15 8 8 13 9 15 11 13 20 11 17 21 21 24 9 8 5 10 17 21 26 24 16 14 20 25
17 16 16 17 16 15 15 14 12 12 10 9 4 5 5 5 5 6 2 4 10 5 9 14 12 21 22 20 16 16 13 11 11 16 17 12 12 13 17 11 2 4 4 5 4 4 9 2 7 8 5 7 11 14 6 9 10 23 21 19 18 16 17 10 13 11 12 15 14 12 11 17 22 33 20 5 7 8 9 8 24 27 31 12 17 23 25
17 17 16 15 15 15 15 14 13 13 11 11 4 4 5 5 7 6 5 6 5 9 8 13 12 12 13 16 18 20 16 12 14 9 10 11 13 10 7 5 4 6 4 5 5 8 7 10 12 11 12 12 9 1 6 2 2 1 8 15 17 15 16 16 16 14 10 13 15 16 15 21 17 23 11 6 9 12 5 5 22 25 3 18 21 21 22
18 18 17 17 16 15 14 14 14 13 12 12 5 5 6 5 4 6 7 4 6 9 7 6 3 6 8 9 9 14 12 15 12 12 11 12 13 14 2 1 0 8 12 10 7 8 8 11 9 11 10 5 8 11 0 3 3 2 1 3 9 13 12 11 14 15 16 16 15 17 10 16 12 13 4 5 10 10 9 9 21 15 18 17 16 20 18
19 18 17 17 16 16 16 14 13 13 13 12 7 4 6 5 4 5 4 4 5 5 6 6 9 6 8 4 8 4 3 4 7 7 13 7 4 6 5 4 6 5 10 14 6 11 13 11 16 13 17 10 2 3 16 7 9 7 8 10 8 8 9 12 20 19 20 20 18 12 10 7 15 15 5 5 6 10 11 23 19 6 9 9 14 16 15
18 19 19 18 16 16 15 15 15 14 12 13 7 6 5 4 3 2 6 5 4 6 6 10 1 7 6 6 8 6 5 7 8 7 2 5 7 7 9 2 6 8 7 11 9 11 11 13 6 7 10 9 7 10 4 13 13 3 9 4 0 6 8 7 10 16 16 19 20 18 14 7 14 4 16 10 7 10 21 21 1 4 4 8 11 14 13
18 18 18 18 18 17 16 15 15 14 13 13 8 6 6 3 3 6 5 7 2 10 6 10 6 13 5 6 6 6 6 7 8 10 7 10 2 9 2 5 5 2 7 8 15 8 11 14 13 5 12 11 12 5 9 15 9 13 7 15 13 14 11 11 15 11 10 9 12 10 13 14 19 11 3 6 14 23 23 17 4 2 5 8 9 10 10
19 18 18 18 17 18 18 17 15 15 14 13 9 4 6 2 3 2 2 4 6 10 7 3 2 4 6 9 8 9 10 11 7 8 6 8 5 9 13 11 11 10 10 10 14 13 8 11 12 10 6 11 8 8 14 9 14 11 14 12 13 11 10 6 11 11 10 14 14 14 18 16 19 22 17 16 24 26 23 10 14 14 9 9 10 11 11
18 19 19 18 17 16 16 17 16 16 16 14 12 4 4 2 2 2 4 5 7 10 7 11 11 11 11 12 12 13 15 16 17 11 10 10 4 9 8 4 7 9 4 5 1 1 4 3 3 7 8 10 5 17 11 13 16 8 14 10 11 15 21 15 16 15 14 14 17 18 16 10 18 22 22 24 31 29 25 16 16 15 11 7 8 13 11
20 20 18 18 18 16 16 16 16 16 16 16 11 3 6 2 0 3 3 6 4 7 6 9 8 11 11 17 16 15 14 12 14 13 11 11 11 10 11 12 11 3 3 7 14 14 14 13 16 9 13 12 13 14 16 18 14 11 15 18 24 20 27 21 15 11 16 18 8 5 6 8 16 20 22 24 22 23 22 17 14 14 11 9 13 10 10
19 19 20 20 19 18 17 17 17 16 16 16 10 4 5 3 3 1 1 4 3 8 8 8 8 12 10 18 16 10 9 11 13 14 11 9 12 8 7 7 5 4 3 6 8 11 8 8 11 9 18 10 10 17 14 15 19 13 14 10 11 16 13 13 16 12 10 15 15 27 22 18 17 22 25 24 20 20 18 18 20 20 11 10 11 11 12
20 20 20 19 19 19 18 17 16 16 16 16 13 7 3 1 1 2 1 4 3 2 8 8 11 7 9 4 7 12 10 9 9 11 10 12 13 13 14 10 8 11 14 12 4 8 4 10 6 7 16 8 13 19 12 18 14 14 19 15 8 16 12 18 18 15 19 20 21 27 26 23 19 19 20 23 25 20 11 16 17 17 12 11 13 9 9
20 20 21 21 18 18 18 17 16 17 16 17 13 5 5 6 2 4 3 4 3 2 7 9 12 5 7 8 10 12 12 10 3 6 7 8 9 12 14 11 15 13 14 9 10 12 11 13 11 10 12 9 14 16 14 18 19 15 24 18 20 10 13 15 10 18 23 19 19 14 15 13 17 22 22 21 20 18 19 15 11 9 12 12 8 10 11
19 20 20 17 18 19 17 18 17 17 17 16 10 4 5 3 5 7 4 4 4 6 6 9 8 6 3 5 3 4 4 7 7 9 11 12 14 13 11 11 14 12 13 11 10 15 12 13 11 16 11 8 6 16 11 11 15 14 17 14 8 4 16 11 11 18 17 19 21 21 19 17 18 24 28 29 29 25 19 16 14 13 13 12 12 13 11
21 19 20 20 19 18 17 18 18 17 16 15 9 6 5 5 6 8 6 7 7 9 9 10 8 12 10 10 10 17 13 11 12 14 16 17 17 13 11 12 10 10 10 12 14 12 10 13 16 9 9 9 10 14 8 12 11 15 18 13 14 20 20 16 20 18 21 23 26 25 25 24 22 26 28 26 19 17 19 19 21 21 20 17 17 15 10
21 20 19 20 18 17 17 18 18 17 17 14 4 3 3 5 7 7 8 7 9 7 7 10 9 9 9 11 3 6 9 11 9 10 11 11 12 13 14 14 13 12 12 13 14 12 13 10 3 6 5 3 8 14 8 18 14 17 16 13 18 19 22 27 29 26 30 26 26 24 21 22 22 26 26 17 12 18 20 21 22 22 20 18 18 20 21
22 20 19 19 19 19 20 18 18 17 15 2 1 1 2 5 6 8 9 9 7 4 7 8 9 5 3 1 2 5 5 8 9 10 12 12 14 14 14 14 15 13 13 13 11 16 13 12 6 3 6 2 9 3 12 13 15 16 13 16 23 20 24 24 25 27 25 20 23 22 22 24 20 20 18 12 10 16 18 20 23 20 19 18 19 18 17
21 22 22 21 21 20 20 19 16 15 17 2 3 2 3 3 4 5 7 6 7 4 2 5 9 7 9 4 9 13 14 12 11 12 12 12 13 15 13 11 13 10 13 11 12 17 10 17 13 5 2 11 8 5 11 12 18 15 13 19 21 24 25 25 24 25 27 24 21 17 14 15 13 11 12 12 13 15 15 16 20 21 20 18 19 19 17
21 22 21 21 20 18 18 19 21 17 6 4 6 5 3 4 2 4 1 4 1 1 2 5 6 3 3 3 2 4 6 9 7 3 4 2 9 7 12 10 12 10 13 13 12 11 16 16 15 19 15 11 10 11 10 14 16 14 4 15 18 20 20 22 23 25 22 21 19 20 17 13 11 17 21 19 14 12 18 18 18 16 18 16 15 13 11
20 19 20 21 21 21 20 18 16 13 4 5 12 16 15 17 11 8 9 1 2 2 3 3 4 3 3 5 7 1 1 5 4 4 12 7 10 4 12 8 10 10 11 14 12 14 11 12 14 16 16 6 14 13 14 20 20 11 16 17 14 16 19 20 21 22 23 22 20 22 23 24 25 23 20 8 4 12 14 14 8 4 7 8 9 9 8
19 18 20 19 18 17 20 17 17 15 10 5 2 7 8 11 11 16 10 3 3 3 1 2 3 7 8 3 11 5 3 2 5 6 10 3 3 4 9 7 7 9 7 12 11 11 12 12 16 15 10 16 12 14 22 21 16 24 24 21 19 16 17 18 19 22 23 22 21 23 26 26 20 2 3 7 9 6 3 3 8 10 10 12 12 13 13
19 18 18 17 17 15 13 14 4 2 4 4 5 2 4 13 16 14 11 5 3 3 2 2 2 7 6 3 8 10 4 3 10 10 10 6 5 8 5 11 6 12 11 7 12 10 13 13 9 13 22 11 15 23 15 11 21 25 23 24 23 22 20 20 20 20 20 19 19 20 21 19 20 13 8 6 7 6 9 10 11 14 13 13 14 13 14
19 18 16 14 5 2 1 1 3 3 4 4 5 5 11 13 13 7 6 4 4 3 5 3 3 8 4 12 10 5 2 7 8 6 3 2 4 2 5 4 12 12 5 9 14 9 13 4 8 20 12 16 23 15 16 18 24 23 23 25 23 21 23 24 25 21 20 18 17 15 15 14 15 17 12 8 7 8 11 12 12 14 18 17 16 15 14
16 16 15 3 5 2 2 5 2 4 6 5 5 7 8 6 2 3 1 1 3 3 6 2 8 9 9 12 4 2 5 15 5 7 1 4 7 4 5 4 14 7 7 9 10 13 15 10 14 16 13 18 17 13 21 21 22 22 21 22 19 19 20 20 20 19 19 18 17 15 15 16 16 12 12 10 11 10 11 14 18 20 20 21 19 16 18
11 2 4 1 1 2 3 2 3 4 5 3 2 2 3 2 0 1 1 3 5 6 4 5 11 9 7 8 13 11 8 12 7 9 5 4 5 5 2 4 4 5 13 9 8 2 7 7 11 14 16 15 18 19 22 22 21 20 19 18 18 18 19 20 19 19 21 21 22 20 14 13 15 13 15 16 15 16 19 20 19 18 17 15 15 17 15
6 4 2 0 1 3 4 4 3 5 6 2 2 1 2 0 2 1 3 3 0 2 4 8 13 12 12 10 12 9 11 11 10 4 10 6 6 6 3 10 4 6 9 8 10 3 14 9 10 10 14 13 16 19 19 23 23 23 22 19 18 19 19 20 19 22 23 23 24 23 21 20 21 22 18 19 17 15 17 17 14 14 15 15 15 15 16
5 1 3 3 6 3 1 1 2 3 1 1 1 4 1 1 4 5 1 0 2 2 1 7 7 10 10 14 14 14 4 6 11 13 13 10 2 8 3 7 1 6 11 9 8 4 11 11 8 11 12 10 13 9 11 14 16 18 16 17 17 19 19 19 19 19 22 24 24 24 22 22 21 20 18 17 17 18 15 13 13 13 13 15 17 18 20
2 2 1 4 3 2 2 2 2 2 1 1 1 1 1 2 2 2 0 2 2 3 2 3 1 3 3 5 6 11 8 4 5 5 4 9 4 2 2 8 3 6 5 9 8 3 1 1 4 12 16 13 13 7 8 12 13 15 15 14 15 15 14 14 15 16 14 15 15 16 16 17 17 18 19 17 14 16 14 12 11 9 9 11 17 15 11
8 6 2 2 3 2 2 1 1 1 1 2 2 3 3 3 0 1 1 3 5 2 4 2 3 4 6 3 4 1 4 1 1 2 2 6 3 6 7 4 2 5 7 11 2 4 2 7 11 13 18 13 5 13 15 15 17 19 21 22 19 17 17 14 12 10 8 12 13 14 14 15 15 10 4 5 6 6 10 9 10 11 15 10 10 13 15
11 7 5 3 1 1 1 2 3 2 3 3 3 2 2 2 3 4 3 2 2 1 6 0 2 0 1 0 4 4 5 1 2 3 4 5 3 1 3 5 2 7 9 2 1 5 7 12 11 18 9 9 10 13 13 13 16 18 19 16 18 20 21 16 12 13 11 8 10 13 11 6 3 5 5 6 7 9 9 10 13 12 12 14 14 15 15
5 5 3 2 3 4 3 5 2 4 2 1 3 5 3 2 4 2 1 5 1 2 2 2 4 3 7 1 3 5 3 2 3 2 5 2 2 3 3 4 8 5 3 1 2 9 12 7 14 10 6 6 10 12 16 18 18 19 21 23 20 18 19 20 19 15 15 11 7 8 4 6 4 2 3 4 9 13 10 10 10 12 13 14 14 13 14
3 1 1 1 1 2 3 3 2 3 5 4 5 4 4 7 8 7 10 3 2 4 3 4 4 3 8 6 1 3 2 5 1 1 5 2 4 4 4 6 2 1 2 10 7 6 1 14 3 7 11 15 15 17 16 14 13 14 18 22 19 20 21 21 21 19 17 13 11 7 8 6 3 3 2 3 4 9 14 14 13 14 13 13 14 14 12
3 4 3 2 4 2 2 2 2 1 2 3 5 7 7 8 4 5 4 0 1 5 8 5 3 3 8 3 1 7 3 3 5 4 3 2 5 9 7 1 1 4 6 3 7 11 17 11 6 7 12 13 15 16 17 15 15 14 14 19 22 22 21 21 21 20 18 13 10 6 4 2 4 6 6 6 7 8 9 11 11 15 16 19 20 18 14
2 1 1 1 1 1 2 3 4 4 4 3 6 7 9 8 4 3 1 2 4 3 3 3 3 2 7 8 3 2 3 1 5 6 3 5 6 5 0 1 7 5 7 10 10 12 7 4 6 11 12 15 19 19 18 17 16 18 18 17 18 20 21 22 22 21 19 11 4 1 3 5 7 8 10 12 10 10 11 12 12 14 18 20 16 15 15
4 1 2 3 4 2 6 5 2 2 1 3 2 2 2 1 2 3 5 4 3 5 6 5 7 6 5 5 4 11 9 3 6 8 5 3 2 2 3 4 5 4 4 5 11 1 4 7 9 11 15 14 16 19 20 21 20 20 19 20 21 22 22 22 22 20 17 11 3 5 6 8 8 10 13 13 9 11 11 12 13 14 15 15 14 14 16
1 2 4 3 2 2 2 2 4 7 8 4 1 2 5 4 2 4 5 6 7 4 2 1 3 2 7 3 5 7 8 4 7 7 3 4 5 6 5 5 4 6 3 3 3 4 7 9 11 13 15 16 15 16 17 16 17 20 18 20 22 22 21 20 21 19 13 10 3 2 5 8 11 13 11 14 17 11 9 11 13 12 13 16 17 16 15
2 2 0 1 2 3 1 1 3 7 3 1 4 4 4 5 4 4 6 6 6 6 6 4 5 6 5 3 6 6 7 5 5 4 5 8 6 5 6 10 7 6 2 3 6 9 10 11 12 14 13 14 18 17 18 19 18 19 18 19 18 18 19 19 20 16 12 10 8 6 8 8 7 9 11 12 12 13 13 12 12 13 12 12 14 14 13
2 3 4 4 10 6 7 6 8 6 2 2 4 3 4 4 4 4 6 5 6 6 3 1 4 3 6 4 5 6 4 0 2 5 7 8 1 2 3 8 4 3 8 9 9 10 11 11 10 12 15 16 14 16 15 15 15 16 18 17 17 16 16 16 15 14 14 13 11 10 10 9 9 11 10 13 17 19 17 15 11 11 12 11 10 11 11
1 3 2 2 4 5 0 2 8 6 5 4 4 4 4 3 4 4 6 5 3 1 6 2 2 5 5 7 6 4 4 2 7 4 9 1 3 1 4 4 8 9 10 12 13 11 11 10 11 15 14 15 17 17 16 15 17 18 18 15 14 14 14 13 12 11 11 10 11 10 10 10 10 10 11 13 14 17 17 12 12 11 11 10 11 11 11
Wind_Direction
261 249 239 232 227 222 218 212 204 193 167 162 180 147 193 195 222 9 160 169 155 161 216 208 207 225 236 300 287 278 307 232 216 199 216 230 196 245 224 213 204 244 195 170 198 181 229 177 213 190 221 239 214 196 164 133 161 130 244 33 310 93 130 232 255 317 343 326 22 72 99 97 303 252 164 146 193 202 206 221 171 185 197 191 238 224 260
298 266 250 240 231 226 220 213 204 190 173 179 162 180 197 203 180 173 257 196 178 163 191 205 214 226 252 225 241 229 242 217 238 219 201 198 179 215 222 249 209 243 171 185 216 177 245 229 196 250 226 258 223 165 167 154 181 165 216 172 198 154 242 180 247 308 333 343 348 347 337 54 217 222 202 201 224 228 230 70 118 225 218 174 136 247 260
336 322 277 254 241 230 222 212 205 194 188 184 161 191 185 175 115 131 165 217 208 204 205 204 191 211 217 212 227 229 247 231 224 206 221 218 222 210 256 207 110 220 182 218 235 202 209 269 224 221 210 237 15 195 169 190 190 213 205 178 156 194 173 161 217 228 236 243 226 220 212 210 210 260 227 210 208 218 168 238 190 229 201 147 211 247 253
331 345 346 310 263 245 231 218 208 199 193 190 186 178 160 180 203 151 189 192 227 248 287 288 204 207 213 226 233 225 239 259 225 212 246 213 297 229 224 290 197 226 196 225 227 236 240 220 234 183 237 236 310 239 202 191 203 219 203 180 145 202 199 203 216 219 229 235 245 130 102 78 193 227 209 222 214 218 217 238 216 221 229 216 227 239 271
329 337 344 353 346 288 248 225 214 205 198 190 189 196 193 138 196 154 187 175 241 232 226 233 223 216 169 213 173 218 219 225 311 186 234 206 217 271 239 224 199 225 210 219 236 229 239 244 257 247 232 307 246 329 167 279 267 351 1 215 170 130 224 225 229 231 237 242 249 180 164 185 213 215 226 225 216 205 210 216 229 221 233 248 244 256 255
332 336 339 339 348 359 329 254 224 213 203 196 197 206 168 213 204 190 179 167 191 208 231 217 222 224 172 225 175 231 209 205 228 175 209 144 183 201 248 232 227 226 207 203 239 206 232 221 237 241 249 242 231 314 39 204 314 68 285 286 188 211 232 234 231 241 248 249 253 185 196 210 208 211 220 224 217 210 215 229 235 225 217 239 250 244 247
341 336 334 335 337 338 353 354 279 223 205 195 202 209 215 220 72 205 156 214 189 207 207 200 207 216 208 233 216 234 227 226 213 169 159 205 202 193 225 223 221 222 220 202 230 217 239 242 237 231 233 217 160 230 314 264 164 174 249 272 181 186 245 247 238 254 250 252 250 224 199 233 245 230 232 231 211 213 218 228 230 227 230 243 251 253 252
344 344 337 334 336 336 341 335 349 314 231 209 229 218 183 202 171 210 193 220 213 208 216 208 202 220 210 221 218 226 226 236 216 163 175 208 211 199 220 230 219 209 218 224 230 226 226 229 243 211 221 214 183 229 200 189 313 192 208 164 273 172 249 242 249 262 253 254 254 234 232 229 243 251 252 240 196 219 226 231 238 239 247 249 251 254 262
334 339 342 340 337 334 330 336 319 348 311 221 222 224 225 209 217 177 178 207 212 213 201 201 200 209 209 222 227 231 232 241 223 223 200 218 204 189 217 224 226 189 213 222 231 233 237 236 243 226 169 208 202 195 246 200 174 211 209 150 273 175 260 220 265 245 256 250 249 234 224 233 238 252 251 245 205 222 236 236 228 222 235 240 249 258 257
315 326 330 337 342 337 334 334 333 327 336 275 231 239 234 248 40 190 194 223 186 211 203 207 199 223 206 209 215 214 222 232 221 258 220 228 223 204 206 219 217 221 219 227 230 233 233 237 239 244 212 219 243 223 227 195 192 194 211 173 172 193 188 220 228 244 248 256 91 171 152 349 281 246 243 240 235 232 242 251 242 224 228 239 242 245 248
309 308 316 324 330 337 340 339 338 333 331 278 271 283 228 235 228 202 204 237 189 205 203 215 204 214 202 215 225 228 231 225 211 216 230 204 222 211 198 202 208 226 222 227 229 237 249 248 250 249 225 204 216 238 238 245 236 182 167 154 239 221 224 231 198 237 249 233 91 114 152 236 238 261 165 206 231 233 238 243 245 245 217 229 234 249 256
311 306 303 311 318 323 332 340 343 343 341 310 304 279 287 317 280 226 213 223 223 198 203 207 202 203 212 208 213 218 217 217 220 208 227 220 204 202 204 211 208 237 231 237 83 114 52 42 30 19 204 207 213 221 215 221 234 207 174 172 185 206 210 233 195 248 247 117 102 151 227 238 247 48 219 215 220 225 228 237 244 250 244 238 245 251 256
310 309 304 303 311 313 315 326 336 347 350 328 306 293 308 317 290 289 258 238 232 203 219 220 213 221 219 218 214 220 223 225 226 224 228 228 232 201 205 207 212 234 110 126 158 130 211 228 231 231 242 249 250 254 252 247 246 221 204 213 215 218 212 205 230 200 36 122 194 234 239 263 336 286 246 231 231 224 222 250 249 251 246 237 235 243 247
300 306 308 309 310 312 310 306 321 330 343 351 327 318 308 309 299 269 264 279 251 196 225 239 219 228 223 227 223 227 225 232 231 223 230 222 233 224 218 223 223 180 150 145 164 170 239 197 238 227 238 236 260 253 239 240 239 233 220 221 219 225 211 198 240 186 234 218 223 239 302 306 282 282 254 181 192 136 193 251 258 257 246 223 226 240 246
291 294 304 309 310 312 310 307 308 312 318 333 314 319 311 310 298 279 312 273 280 284 213 225 198 221 222 228 220 234 229 223 220 229 230 232 238 227 223 217 127 149 123 164 212 194 215 149 232 217 223 190 218 232 205 237 222 224 223 222 212 209 218 200 231 230 217 244 252 255 239 249 254 244 264 98 200 196 205 223 272 263 258 197 209 230 241
288 291 295 300 306 306 307 307 308 308 307 317 317 308 296 314 311 304 279 263 301 266 233 227 223 228 227 227 217 225 227 223 229 236 233 227 233 244 249 194 193 135 166 215 189 209 202 218 226 212 221 214 218 281 219 144 304 286 229 225 216 214 220 222 218 240 231 237 239 241 238 245 244 269 271 214 193 184 111 208 255 260 165 159 204 222 234
283 286 287 289 293 297 300 302 302 304 309 313 300 295 293 309 326 305 308 285 225 243 326 6 339 261 237 230 214 229 217 229 214 225 234 224 218 214 239 15 60 186 198 223 198 212 206 221 225 229 249 207 219 221 29 182 209 239 17 104 198 204 214 220 232 232 230 237 241 242 219 252 248 261 218 196 116 111 117 238 253 252 131 193 189 217 221
288 282 280 284 284 285 289 291 296 298 299 303 294 280 280 283 280 298 304 262 282 275 230 289 304 239 233 225 236 230 221 231 219 224 239 225 186 178 192 159 177 267 175 217 159 222 222 213 218 214 233 201 212 127 225 187 218 162 191 161 171 195 222 206 221 219 228 226 246 255 264 252 254 245 137 140 140 130 189 233 253 112 187 180 193 207 213
279 283 284 278 278 280 282 285 285 292 293 292 295 279 255 250 264 317 287 281 257 258 324 328 250 269 309 314 279 237 223 206 202 209 142 214 219 178 161 234 176 202 183 210 194 220 219 227 217 224 237 215 178 222 185 221 223 196 124 125 42 210 207 226 212 228 224 228 231 239 248 245 250 168 153 150 108 219 228 242 167 246 228 193 192 201 206
280 279 277 280 280 276 275 278 281 280 279 284 296 263 282 299 259 255 286 293 253 282 278 275 270 276 287 286 286 287 300 253 217 222 198 226 136 122 32 228 254 89 202 182 226 197 218 221 212 207 224 219 219 190 225 228 203 194 179 195 200 189 195 186 202 215 228 234 246 243 253 236 207 108 59 205 202 237 237 244 291 228 201 188 215 206 206
279 277 275 275 276 280 278 274 269 266 270 274 277 290 295 249 255 321 247 263 294 296 276 233 112 279 302 297 287 288 289 283 289 262 256 245 207 151 209 207 179 177 192 184 216 204 206 228 202 220 205 208 206 201 222 202 231 204 189 195 220 155 216 197 223 182 199 208 209 219 214 235 142 159 188 200 213 233 240 224 249 241 200 196 198 219 199
277 277 277 274 274 273 274 275 275 277 276 269 274 270 269 259 85 332 287 275 274 260 266 295 296 287 277 261 257 247 248 256 261 264 273 287 263 242 262 252 191 184 196 185 115 299 233 224 190 223 207 221 179 227 199 221 230 182 210 183 242 160 218 200 217 190 203 210 217 224 227 192 178 189 212 210 213 226 239 220 229 240 231 194 189 215 203
279 278 277 276 274 273 272 271 268 270 271 274 278 223 255 285 52 266 5 308 249 257 260 265 251 244 247 261 254 250 247 233 243 245 225 240 257 254 262 263 255 222 256 203 209 217 214 207 223 209 235 218 202 227 212 220 231 184 210 197 222 200 212 218 232 221 223 241 239 257 217 174 197 212 218 227 224 226 234 234 240 242 229 176 204 208 188
269 269 272 273 272 272 272 272 274 270 268 266 262 252 252 220 212 325 343 253 268 293 283 228 233 252 233 255 258 242 235 242 235 241 242 228 254 263 257 243 284 277 226 251 244 236 237 224 235 196 234 207 184 227 211 229 228 206 228 219 232 231 216 218 229 215 203 239 214 238 228 219 198 213 224 231 229 223 216 218 227 236 215 198 217 200 186
274 278 277 273 274 274 272 275 275 274 272 270 272 268 277 333 199 163 208 301 280 287 279 293 253 274 289 304 314 286 261 249 243 240 236 229 234 246 254 256 248 257 262 255 285 280 266 260 249 220 240 212 189 238 200 230 241 171 235 218 187 244 202 230 221 216 215 234 222 227 231 225 214 223 231 234 235 232 218 219 222 226 213 202 204 187 194
273 272 271 272 268 266 273 276 274 274 274 269 263 225 218 225 174 130 166 222 245 236 271 271 275 257 239 263 249 245 262 264 276 266 253 263 266 257 266 264 256 251 262 265 267 254 247 245 242 242 239 240 198 236 219 208 230 195 219 218 205 213 161 227 164 220 232 241 254 263 253 239 237 236 236 238 238 231 226 221 221 217 211 208 199 187 188
271 271 274 272 274 274 271 270 272 272 272 272 268 238 217 223 197 179 185 204 295 290 232 252 272 284 122 218 254 288 277 274 268 274 282 268 261 265 268 274 283 292 282 275 246 250 243 243 234 244 227 246 200 238 231 228 224 223 231 221 174 151 211 204 201 232 232 224 229 227 243 238 230 234 233 231 229 229 225 219 221 218 217 203 191 207 206
272 273 274 276 274 274 274 273 272 274 273 272 270 245 215 210 201 191 201 189 191 239 267 281 287 279 286 284 262 263 274 271 263 258 255 260 267 267 262 261 263 266 266 272 270 249 248 241 239 234 243 243 244 248 226 254 245 239 233 209 186 209 211 199 221 215 233 225 230 226 230 236 229 234 236 233 228 225 221 217 220 219 217 205 200 203 199
269 272 273 272 273 273 273 277 277 275 275 273 257 278 293 227 221 207 204 200 203 240 250 264 273 290 283 266 318 338 288 272 271 267 269 273 269 264 264 263 260 259 264 258 262 270 264 265 274 240 238 141 220 249 210 237 225 231 226 203 212 220 214 215 222 226 235 227 228 225 227 233 234 238 246 241 203 214 217 220 224 221 212 206 203 202 200
265 266 267 270 272 273 271 269 270 272 276 339 64 55 329 298 218 207 205 199 189 208 247 264 262 239 263 291 277 224 271 280 266 262 263 263 261 259 255 258 258 248 248 253 265 267 262 273 252 249 254 165 242 262 230 239 243 237 221 214 224 224 229 228 227 227 239 227 235 233 233 240 242 248 251 247 198 203 211 216 220 220 215 201 201 208 207
266 264 264 263 264 264 265 268 276 278 274 129 118 139 213 260 271 175 179 187 188 190 230 254 269 299 288 237 246 257 253 257 268 268 262 254 257 262 260 253 249 237 256 250 248 253 267 259 263 251 188 217 231 251 253 251 250 247 214 216 221 223 225 228 230 232 238 242 242 240 237 243 242 255 253 240 221 201 209 214 217 214 207 195 201 204 203
259 262 261 262 261 262 265 264 261 257 226 172 206 188 178 182 163 75 145 89 136 152 271 290 284 270 250 270 215 207 224 234 241 256 252 248 266 251 266 241 258 241 247 252 247 262 247 255 256 255 250 228 233 262 246 251 252 254 214 222 227 229 227 230 233 237 240 241 248 259 255 251 220 224 239 231 225 197 208 212 213 209 198 196 200 201 195
262 261 263 264 266 265 265 270 273 267 229 228 224 240 251 253 249 240 256 275 68 190 221 224 221 257 259 243 274 298 288 259 239 213 258 215 259 226 259 244 251 251 237 250 236 247 240 242 250 254 246 205 238 251 258 251 250 260 248 242 235 234 234 234 236 237 238 239 233 240 243 242 241 232 239 254 179 195 208 217 208 140 143 158 154 150 147
261 263 265 264 267 275 272 270 275 281 277 256 221 227 228 236 242 243 237 162 202 222 164 180 261 249 262 281 280 253 228 222 256 207 264 198 228 198 260 267 237 257 185 229 246 251 246 241 245 249 258 237 238 254 249 246 250 250 246 248 247 244 241 241 239 239 239 239 238 239 244 246 254 317 155 194 217 207 193 99 122 148 167 171 180 178 160
262 262 265 274 275 277 297 299 304 172 221 236 247 254 153 199 211 219 219 139 240 238 235 246 217 277 288 290 252 272 233 233 263 246 249 265 237 245 255 259 250 252 246 231 251 230 254 245 253 252 245 246 248 243 247 256 246 247 250 251 248 248 250 250 248 244 247 243 243 243 247 252 256 248 225 211 200 166 155 179 175 165 170 187 187 175 162
262 264 266 270 287 56 108 218 154 190 203 221 235 225 223 224 232 239 212 189 179 223 242 239 232 244 238 271 275 272 166 226 230 265 196 244 274 224 222 235 263 246 259 242 261 248 248 227 235 248 243 240 242 246 258 245 252 252 251 251 249 246 247 243 248 243 243 243 244 247 247 247 244 246 237 214 192 188 184 180 189 185 189 190 186 180 177
275 285 283 222 117 104 190 208 203 179 214 182 206 232 257 265 242 163 122 118 252 184 226 225 247 234 234 255 259 278 309 274 283 280 154 256 239 261 250 234 244 260 248 238 236 246 250 228 248 261 249 245 255 252 257 259 257 255 250 250 250 249 250 249 246 247 247 245 247 251 248 243 244 242 241 219 203 191 185 191 191 194 198 197 189 175 181
272 124 100 94 89 157 254 243 210 223 199 222 227 339 334 33 86 266 214 225 213 187 212 212 242 247 245 248 257 259 268 268 278 275 283 247 276 249 233 228 249 272 267 270 251 242 279 255 255 253 255 254 264 259 259 260 262 261 256 253 247 242 242 244 242 241 243 246 248 243 244 245 243 236 228 227 210 201 200 202 203 200 200 194 176 171 158
231 113 80 148 164 222 196 248 216 138 97 82 80 77 309 117 71 335 233 212 62 229 220 199 236 229 237 243 258 253 241 273 272 266 265 252 269 278 263 272 254 261 266 276 259 149 262 241 249 250 259 260 265 266 264 260 257 255 256 255 255 251 245 244 238 236 236 236 237 235 228 229 231 235 228 231 225 214 208 206 203 195 195 183 173 171 170
84 144 175 196 209 214 113 64 125 127 87 76 314 100 248 246 131 248 182 229 290 252 178 243 216 231 218 231 241 261 218 228 247 252 254 264 201 265 257 266 208 259 266 252 270 241 261 272 266 273 269 259 259 273 288 284 279 275 271 264 253 249 248 245 243 238 239 242 240 242 239 238 236 240 239 235 229 224 215 210 200 193 179 176 166 163 171
170 87 176 209 215 144 192 154 18 45 81 105 8 348 89 300 221 203 297 251 216 245 193 196 233 248 237 239 252 262 263 251 277 282 269 264 238 261 245 258 266 262 265 268 259 235 351 303 270 262 268 268 268 277 321 340 337 329 318 313 302 299 289 280 272 266 260 256 255 255 253 249 244 239 240 242 235 225 212 200 190 182 157 149 166 169 137
199 181 162 110 96 101 79 41 112 118 216 176 136 228 189 219 347 352 183 184 230 227 295 188 240 229 253 214 244 229 300 182 233 266 276 265 245 224 237 239 239 238 249 243 288 68 268 268 263 268 255 255 314 17 12 351 342 335 325 329 330 327 317 309 297 286 268 266 269 266 259 255 256 256 227 192 187 141 126 147 160 169 173 159 129 128 142
189 118 116 99 114 171 152 167 190 131 193 189 129 233 177 184 217 169 256 245 277 125 254 149 220 288 289 354 297 195 230 224 258 253 247 251 273 235 211 230 232 234 240 33 76 249 245 252 254 257 300 11 26 359 357 344 329 323 319 325 333 327 320 314 302 294 298 295 272 266 267 254 215 186 167 159 161 166 176 177 174 158 141 139 146 142 140
134 159 157 161 154 232 137 200 154 96 208 195 175 200 185 195 268 90 152 256 254 297 232 188 267 32 300 292 275 298 306 299 227 254 242 240 242 246 228 228 237 251 55 9 230 241 246 251 251 282 13 320 356 357 347 343 338 329 328 329 331 328 330 331 325 308 286 268 248 254 256 245 238 156 150 163 160 155 148 137 129 128 129 129 134 138 138
123 32 47 41 207 237 96 232 100 137 185 209 189 217 172 198 215 188 215 240 125 218 338 29 326 332 290 296 250 234 237 271 298 254 271 275 277 247 251 252 259 5 226 241 245 251 351 255 313 29 358 346 335 336 328 328 335 330 318 314 326 336 333 330 322 317 305 295 283 263 244 240 146 160 158 120 129 142 142 140 137 130 133 127 122 123 137
178 173 156 193 214 203 159 235 113 229 263 193 203 194 200 225 202 220 243 132 355 332 341 312 302 279 285 272 239 280 284 252 269 231 243 243 244 254 237 266 38 262 251 218 235 241 241 250 36 338 344 326 329 324 329 321 325 328 332 328 323 324 325 323 318 313 302 301 305 291 307 53 111 109 91 89 100 105 106 118 131 133 131 121 120 133 140
147 181 153 199 234 253 112 188 214 202 181 206 215 184 195 217 211 207 304 38 14 318 342 294 279 273 291 299 297 257 228 211 250 247 229 251 244 266 305 107 242 226 240 243 238 243 264 51 353 339 334 335 328 329 325 326 328 331 327 313 313 313 316 318 314 312 307 287 283 350 71 81 85 92 98 86 68 90 103 108 119 127 135 136 134 132 132
179 190 124 194 217 175 199 227 187 262 236 179 218 207 232 88 328 346 17 11 345 27 27 5 342 327 289 256 242 267 266 224 251 248 216 232 254 257 257 233 236 242 225 239 252 98 2 347 342 334 331 332 329 327 328 330 329 328 321 319 313 315 317 311 307 309 313 293 227 143 133 125 123 118 114 107 89 85 110 115 122 125 125 126 130 131 131
198 166 184 206 210 180 226 187 149 228 246 276 314 46 18 5 18 53 355 3 18 9 330 325 282 286 271 270 249 258 255 221 240 257 237 200 215 232 237 235 228 258 260 151 295 356 341 342 328 328 325 328 329 327 322 321 321 317 317 315 315 310 307 302 307 313 320 320 313 121 109 109 112 106 104 106 96 89 101 109 115 118 130 135 134 134 132
209 282 187 210 318 264 208 50 156 231 248 350 35 35 14 35 60 52 20 10 352 327 296 248 223 228 264 282 271 258 260 240 241 248 240 235 234 237 243 252 238 243 241 30 333 323 324 323 327 323 328 327 326 324 317 317 317 316 312 311 311 312 306 308 318 326 337 341 358 42 78 83 78 104 109 95 84 86 81 93 100 110 115 121 126 128 129
212 236 234 191 214 217 137 202 210 210 172 89 71 33 21 0 15 18 358 343 325 352 30 274 299 317 301 275 264 266 247 117 313 249 239 253 331 304 233 262 298 6 303 312 306 309 314 318 324 321 322 324 319 317 314 308 313 314 313 314 313 308 309 315 324 337 344 358 19 42 43 45 77 90 89 96 102 95 80 71 83 99 105 103 106 110 110
218 204 232 350 23 24 229 104 62 55 55 69 72 36 19 14 17 351 337 336 325 313 281 314 286 254 246 249 250 267 300 277 264 258 261 313 33 311 274 309 323 319 325 319 316 317 313 315 319 320 318 316 317 316 311 311 312 313 313 310 308 317 329 332 336 347 356 10 26 39 51 62 79 87 95 98 102 99 88 90 62 67 98 100 102 94 94